When you browse on this site, cookies collect data to enhance your experience and personalize the content and advertising you see.
Visit our Privacy Policy to learn more. By continuing to use the site, you agree to this use of cookies and data.
  • En España
  • Lista de países
  • Para 7 días
  • Temperatura del agua
  • El tiempo en el mapa
  • Informadores
  • user-avatar
    Iniciar sesión

    Tiempo cada hora Trostyanec

    Hoy, 3 Junio, Miércoles

    Tiempo Temperatura Precipitaciones Viento Presión Humedad
    00:00 +11°C° 0 mm 1 mps 745 mmHg 86%
    01:00 +10°C° 0 mm 1 mps 745 mmHg 87%
    02:00 +10°C° 0 mm 1 mps 745 mmHg 89%
    03:00 +10°C° 0 mm 1 mps 744 mmHg 89%
    04:00 +11°C° 0 mm 1 mps 744 mmHg 90%
    05:00 +11°C° 0 mm 1 mps 744 mmHg 90%
    06:00 +13°C° 0 mm 1 mps 744 mmHg 84%
    07:00 +15°C° 0 mm 1 mps 744 mmHg 79%
    08:00 +16°C° 0 mm 1 mps 744 mmHg 73%
    09:00 +18°C° 0 mm 1 mps 744 mmHg 69%
    10:00 +19°C° 0 mm 1 mps 744 mmHg 65%
    11:00 +20°C° 0 mm 1 mps 744 mmHg 60%
    12:00 +20°C° 0.5 mm 1 mps 744 mmHg 62%
    13:00 +20°C° 0.5 mm 1 mps 744 mmHg 63%
    14:00 +19°C° 0.5 mm 2 mps 744 mmHg 64%
    15:00 +19°C° 0.6 mm 2 mps 743 mmHg 68%
    16:00 +19°C° 0.6 mm 2 mps 743 mmHg 71%
    17:00 +18°C° 0.6 mm 2 mps 743 mmHg 74%
    18:00 +18°C° 0.2 mm 1 mps 743 mmHg 78%
    19:00 +15°C° 0.2 mm 1 mps 743 mmHg 82%
    20:00 +14°C° 0.2 mm 1 mps 743 mmHg 86%
    21:00 +14°C° 0.2 mm 1 mps 743 mmHg 87%
    22:00 +13°C° 0.2 mm 1 mps 743 mmHg 88%
    23:00 +13°C° 0.2 mm 1 mps 742 mmHg 88%

    Mañana, 4 Junio, Jueves

    Tiempo Temperatura Precipitaciones Viento Presión Humedad
    00:00 +13°C° 0.7 mm 1 mps 743 mmHg 91%
    01:00 +13°C° 0.7 mm 1 mps 743 mmHg 93%
    02:00 +13°C° 0.7 mm 1 mps 743 mmHg 95%
    03:00 +13°C° 0.7 mm 2 mps 743 mmHg 95%
    04:00 +12°C° 0.7 mm 2 mps 743 mmHg 96%
    05:00 +11°C° 0.7 mm 3 mps 743 mmHg 96%
    06:00 +12°C° 0.2 mm 3 mps 743 mmHg 95%
    07:00 +12°C° 0.2 mm 3 mps 743 mmHg 94%
    08:00 +12°C° 0.2 mm 3 mps 744 mmHg 93%
    09:00 +14°C° 0.3 mm 4 mps 744 mmHg 88%
    10:00 +15°C° 0.3 mm 4 mps 744 mmHg 82%
    11:00 +17°C° 0.3 mm 5 mps 744 mmHg 77%
    12:00 +17°C° 0.4 mm 5 mps 744 mmHg 75%
    13:00 +19°C° 0.4 mm 5 mps 744 mmHg 72%
    14:00 +19°C° 0.4 mm 5 mps 744 mmHg 69%
    15:00 +19°C° 0.2 mm 5 mps 744 mmHg 72%
    16:00 +19°C° 0.2 mm 5 mps 744 mmHg 74%
    17:00 +19°C° 0.2 mm 4 mps 744 mmHg 77%
    18:00 +17°C° 0.1 mm 4 mps 745 mmHg 80%
    19:00 +15°C° 0.1 mm 4 mps 745 mmHg 84%
    20:00 +14°C° 0.1 mm 4 mps 745 mmHg 88%
    21:00 +13°C° 0 mm 4 mps 745 mmHg 88%
    22:00 +13°C° 0 mm 4 mps 745 mmHg 88%
    23:00 +12°C° 0 mm 5 mps 745 mmHg 89%

    Pasado mañana, 5 Junio, Viernes

    Tiempo Temperatura Precipitaciones Viento Presión Humedad
    00:00 +12°C° 0 mm 4 mps 746 mmHg 89%
    01:00 +11°C° 0 mm 4 mps 746 mmHg 90%
    02:00 +11°C° 0 mm 4 mps 746 mmHg 91%
    03:00 +11°C° 0 mm 4 mps 746 mmHg 90%
    04:00 +10°C° 0 mm 5 mps 746 mmHg 89%
    05:00 +10°C° 0 mm 5 mps 746 mmHg 89%
    06:00 +12°C° 0.2 mm 5 mps 746 mmHg 89%
    07:00 +13°C° 0.2 mm 5 mps 746 mmHg 89%
    08:00 +14°C° 0.2 mm 6 mps 746 mmHg 89%
    09:00 +15°C° 0.8 mm 6 mps 746 mmHg 89%
    10:00 +15°C° 0.8 mm 6 mps 746 mmHg 89%
    11:00 +16°C° 0.8 mm 7 mps 747 mmHg 89%
    12:00 +16°C° 0.4 mm 6 mps 746 mmHg 90%
    13:00 +15°C° 0.4 mm 6 mps 746 mmHg 91%
    14:00 +15°C° 0.4 mm 6 mps 746 mmHg 93%
    15:00 +16°C° 0.8 mm 5 mps 746 mmHg 91%
    16:00 +17°C° 0.8 mm 5 mps 746 mmHg 90%
    17:00 +19°C° 0.8 mm 4 mps 746 mmHg 88%
    18:00 +19°C° 1.1 mm 4 mps 746 mmHg 88%
    19:00 +19°C° 1.1 mm 4 mps 746 mmHg 88%
    20:00 +18°C° 1.1 mm 4 mps 746 mmHg 89%
    21:00 +18°C° 0.7 mm 4 mps 746 mmHg 89%
    22:00 +17°C° 0.7 mm 5 mps 747 mmHg 89%
    23:00 +16°C° 0.7 mm 5 mps 747 mmHg 90%

    6 Junio, Sábado

    Tiempo Temperatura Precipitaciones Viento Presión Humedad
    00:00 +15°C° 0 mm 4 mps 747 mmHg 91%
    01:00 +15°C° 0 mm 4 mps 747 mmHg 92%
    02:00 +14°C° 0 mm 4 mps 748 mmHg 93%
    03:00 +14°C° 0 mm 4 mps 748 mmHg 93%
    04:00 +14°C° 0 mm 4 mps 748 mmHg 93%
    05:00 +14°C° 0 mm 4 mps 748 mmHg 93%
    06:00 +15°C° 0 mm 5 mps 748 mmHg 90%
    07:00 +17°C° 0 mm 5 mps 749 mmHg 87%
    08:00 +19°C° 0 mm 6 mps 749 mmHg 84%
    09:00 +20°C° 0 mm 6 mps 749 mmHg 80%
    10:00 +22°C° 0 mm 6 mps 750 mmHg 76%
    11:00 +23°C° 0 mm 6 mps 750 mmHg 72%
    12:00 +24°C° 0 mm 6 mps 750 mmHg 70%
    13:00 +24°C° 0 mm 6 mps 750 mmHg 68%
    14:00 +26°C° 0 mm 6 mps 750 mmHg 66%
    15:00 +26°C° 0 mm 5 mps 750 mmHg 69%
    16:00 +25°C° 0 mm 4 mps 750 mmHg 73%
    17:00 +25°C° 0 mm 4 mps 750 mmHg 76%
    18:00 +24°C° 0 mm 3 mps 750 mmHg 79%
    19:00 +21°C° 0 mm 3 mps 750 mmHg 81%
    20:00 +19°C° 0 mm 3 mps 751 mmHg 84%
    21:00 +19°C° 0 mm 3 mps 751 mmHg 83%
    22:00 +18°C° 0 mm 4 mps 751 mmHg 82%
    23:00 +17°C° 0 mm 4 mps 752 mmHg 81%

    7 Junio, Domingo

    Tiempo Temperatura Precipitaciones Viento Presión Humedad
    00:00 +17°C° 0 mm 3 mps 752 mmHg 82%
    01:00 +16°C° 0 mm 3 mps 752 mmHg 83%
    02:00 +14°C° 0 mm 3 mps 752 mmHg 83%
    03:00 +14°C° 0 mm 3 mps 752 mmHg 84%
    04:00 +14°C° 0 mm 3 mps 752 mmHg 85%
    05:00 +14°C° 0 mm 3 mps 752 mmHg 86%
    06:00 +17°C° 0 mm 3 mps 753 mmHg 84%
    07:00 +19°C° 0 mm 4 mps 753 mmHg 83%
    08:00 +21°C° 0 mm 5 mps 753 mmHg 81%
    09:00 +22°C° 0 mm 5 mps 753 mmHg 77%
    10:00 +25°C° 0 mm 5 mps 753 mmHg 74%
    11:00 +26°C° 0 mm 5 mps 754 mmHg 70%
    12:00 +27°C° 0 mm 5 mps 754 mmHg 69%
    13:00 +27°C° 0 mm 5 mps 753 mmHg 67%
    14:00 +28°C° 0 mm 5 mps 753 mmHg 66%
    15:00 +27°C° 0 mm 4 mps 753 mmHg 69%
    16:00 +27°C° 0 mm 4 mps 753 mmHg 73%
    17:00 +27°C° 0 mm 3 mps 752 mmHg 77%
    18:00 +25°C° 0 mm 3 mps 752 mmHg 80%
    19:00 +24°C° 0 mm 3 mps 752 mmHg 83%
    20:00 +21°C° 0 mm 3 mps 752 mmHg 86%
    21:00 +20°C° 0 mm 3 mps 753 mmHg 87%
    22:00 +20°C° 0 mm 3 mps 753 mmHg 88%
    23:00 +19°C° 0 mm 3 mps 753 mmHg 88%

    8 Junio, Lunes

    Tiempo Temperatura Precipitaciones Viento Presión Humedad
    00:00 +18°C° 0 mm 3 mps 753 mmHg 89%
    01:00 +18°C° 0 mm 3 mps 753 mmHg 89%
    02:00 +18°C° 0 mm 3 mps 753 mmHg 90%
    03:00 +18°C° 0 mm 3 mps 753 mmHg 90%
    04:00 +18°C° 0 mm 3 mps 753 mmHg 90%
    05:00 +18°C° 0 mm 3 mps 753 mmHg 90%
    06:00 +20°C° 0 mm 3 mps 753 mmHg 86%
    07:00 +22°C° 0 mm 4 mps 753 mmHg 82%
    08:00 +23°C° 0 mm 4 mps 753 mmHg 78%
    09:00 +25°C° 0 mm 4 mps 753 mmHg 74%
    10:00 +26°C° 0 mm 5 mps 753 mmHg 70%
    11:00 +28°C° 0 mm 5 mps 753 mmHg 67%
    12:00 +28°C° 0 mm 5 mps 753 mmHg 66%
    13:00 +28°C° 0 mm 4 mps 753 mmHg 64%
    14:00 +28°C° 0 mm 4 mps 753 mmHg 63%
    15:00 +28°C° 0 mm 4 mps 752 mmHg 67%
    16:00 +28°C° 0 mm 3 mps 752 mmHg 70%
    17:00 +28°C° 0 mm 3 mps 752 mmHg 74%
    18:00 +26°C° 0 mm 3 mps 752 mmHg 77%
    19:00 +24°C° 0 mm 3 mps 752 mmHg 80%
    20:00 +22°C° 0 mm 3 mps 752 mmHg 83%
    21:00 +21°C° 0 mm 3 mps 752 mmHg 85%
    22:00 +21°C° 0 mm 3 mps 752 mmHg 86%
    23:00 +20°C° 0 mm 3 mps 752 mmHg 88%
    Mostrar más